This is the latest recevied weather packets stored in our database for station/object W9KHP-1. If no packets are shown the sender has not sent any weather packets the latest 10 day(s).
| Time | Temp. | Humidity | Pressure | Rain* | Wind** | Luminosity | Snow |
|---|---|---|---|---|---|---|---|
| 1777715314 | 7.78° C | 86% | 1018.9 hPa | 0 mm | - | 0 W/m² | - |
| 1777715011 | 7.78° C | 85% | 1018.9 hPa | 0 mm | - | 0 W/m² | - |
| 1777714708 | 7.78° C | 85% | 1018.8 hPa | 0 mm | - | 0 W/m² | - |
| 1777714407 | 7.78° C | 84% | 1018.8 hPa | 0 mm | - | 0 W/m² | - |
| 1777714105 | 7.78° C | 85% | 1018.7 hPa | 0 mm | - | 0 W/m² | - |
| 1777713802 | 7.78° C | 86% | 1018.9 hPa | 0 mm | - | 0 W/m² | - |
| 1777713499 | 7.78° C | 84% | 1019 hPa | 0 mm | - | 0 W/m² | - |
| 1777713195 | 7.78° C | 85% | 1018.8 hPa | 0 mm | - | 0 W/m² | - |
| 1777712893 | 7.78° C | 88% | 1019 hPa | 0 mm | - | 0 W/m² | - |
| 1777712589 | 7.78° C | 90% | 1018.9 hPa | 0 mm | - | 0 W/m² | - |
| 1777712286 | 7.78° C | 88% | 1019 hPa | 0 mm | - | 0 W/m² | - |
| 1777711982 | 7.22° C | 90% | 1018.9 hPa | 0 mm | - | 0 W/m² | - |
| 1777711680 | 7.22° C | 89% | 1019 hPa | 0 mm | - | 0 W/m² | - |
| 1777711375 | 7.22° C | 89% | 1019.3 hPa | 0 mm | - | 0 W/m² | - |
| 1777711072 | 7.22° C | 88% | 1019.1 hPa | 0 mm | - | 0 W/m² | - |
| 1777710768 | 7.22° C | 89% | 1019.2 hPa | 0 mm | - | 0 W/m² | - |
| 1777710466 | 7.78° C | 88% | 1019 hPa | 0 mm | - | 0 W/m² | - |
| 1777710162 | 7.78° C | 87% | 1018.9 hPa | 0 mm | - | 0 W/m² | - |
| 1777709860 | 7.22° C | 85% | 1019.2 hPa | 0 mm | - | 0 W/m² | - |
| 1777709557 | 7.22° C | 85% | 1019.2 hPa | 0 mm | - | 0 W/m² | - |
| 1777709255 | 7.22° C | 86% | 1019.3 hPa | 0 mm | - | 0 W/m² | - |
| 1777708952 | 7.22° C | 89% | 1019.2 hPa | 0 mm | - | 0 W/m² | - |
| 1777708649 | 7.22° C | 89% | 1019.1 hPa | 0 mm | - | 0 W/m² | - |
| 1777708347 | 7.22° C | 89% | 1019.4 hPa | 0 mm | - | 0 W/m² | - |
| 1777708044 | 7.22° C | 87% | 1019.2 hPa | 0 mm | - | 0 W/m² | - |
* Rain latest hour (hover to see other rain measurements)
** Current wind speed in m/s (hover to see current wind gust speed)